Weather History for MMCU - September, 2013

Change the Weather History Date:

Monday, September 2, 2013

  Actual Average Record
Temperature  
Mean Temperature 76 °F -  
Max Temperature 89 °F 84 °F 93 °F (2000)
Min Temperature 64 °F 56 °F 57 °F (2004)
Cooling Degree Days 12    
Growing Degree Days 26 (Base 50)    
Moisture  
Dew Point 55 °F    
Average Humidity 47    
Maximum Humidity 94    
Minimum Humidity 22    
Precipitation  
Precipitation 0.00 in - - ()
Sea Level Pressure  
Sea Level Pressure 29.91 in    
Wind  
Wind Speed 3 mph ()    
Max Wind Speed 10 mph    
Max Gust Speed -    
Visibility 7.9 miles    
Events      
Averages and records for this station are not official NWS values.
T = Trace of Precipitation, MM = Missing Value Source: Averaged Metar Reports

Daily Weather History Graph

Daily Weather History Graph

Search for Another Location

Airport or City:

Trip Planner

Search our weather history database for the weather conditions in past years. The results will help you decide how hot, cold, wet, or windy it might be!

Date:

Astronomy

Sep. 02, 2013 Rise Set
Actual Time 6:42 AM MDT 7:23 PM MDT
Civil Twilight 6:18 AM MDT 7:47 PM MDT
Nautical Twilight 5:50 AM MDT 8:15 PM MDT
Astronomical Twilight 5:21 AM MDT 8:44 PM MDT
Moon 4:10 AM MDT (9/2) 5:33 PM MDT (9/2)
Length of Visible Light 13h 29m
Length of Day
12h 41m
Waning Crescent, 7% of the Moon is Illuminated
Sep 2
Waning Crescent
Sep 5
New
Sep 12
First Quarter
Sep 19
Full
Sep 26
Last Quarter

Hourly Weather History & Observations

Time (MDT) Temp. Heat Index Dew Point Humidity Pressure Visibility Wind Dir Wind Speed Gust Speed Precip Events Conditions
2:40 AM 67 °F - 60 °F 71% 29.67 in 1 mi Calm Calm - -  
4:40 AM 62.6 °F - 55.4 °F 77% 30.10 in 10.0 mi South 6.9 mph - N/A   Partly Cloudy
5:45 AM 66 °F - 59 °F 73% 29.73 in 1 mi NNW 2.2 mph - -   Scattered Clouds
5:45 AM 60.8 °F - 55.4 °F 82% 29.91 in 10.0 mi SW 3.5 mph - N/A   Partly Cloudy
6:45 AM 57.2 °F - 55.4 °F 94% 30.12 in 10.0 mi South 4.6 mph - N/A   Scattered Clouds
7:40 AM 62.6 °F - 59.0 °F 88% 30.14 in 10.0 mi SSE 5.8 mph - N/A   Scattered Clouds
8:45 AM 76 °F - 57 °F 41% 29.88 in 6 mi ENE 2.2 mph - -  
8:45 AM 71.6 °F - 55.4 °F 57% 29.88 in 10.0 mi Calm Calm - N/A   Scattered Clouds
9:46 AM 75.2 °F - 55.4 °F 50% 30.17 in 10.0 mi Calm Calm - N/A   Mostly Cloudy
10:40 AM 80.6 °F 80.5 °F 55.4 °F 42% 30.16 in 10.0 mi ENE 6.9 mph - N/A   Scattered Clouds
11:39 AM 84 °F - 55 °F 26% 29.87 in 6 mi ENE 4.5 mph - -  
11:47 AM 82.4 °F - 51.8 °F 35% 29.86 in 10.0 mi NNE 4.6 mph - N/A   Scattered Clouds
12:44 PM 84.2 °F - 51.8 °F 33% 30.13 in 10.0 mi East 3.5 mph - N/A   Scattered Clouds
1:43 PM 86.0 °F - 51.8 °F 31% 30.10 in 10.0 mi East 6.9 mph - N/A   Partly Cloudy
2:40 PM 87.8 °F - 51.8 °F 29% 29.77 in 10.0 mi ESE 6.9 mph - N/A   Partly Cloudy
2:45 PM 89 °F - 56 °F 23% 29.68 in 6 mi East 6.7 mph - -  
3:40 PM 87.8 °F - 51.8 °F 29% 30.06 in 10.0 mi NE 3.5 mph - N/A   Scattered Clouds
4:40 PM 87.8 °F - 50.0 °F 27% 30.04 in 10.0 mi ENE 10.4 mph - N/A   Scattered Clouds
5:40 PM 87.8 °F - 50.0 °F 27% 29.74 in 10.0 mi NE 6.9 mph - N/A   Partly Cloudy
5:45 PM 88 °F - 54 °F 22% 29.59 in 6 mi East 8.9 mph - -  
6:40 PM 84.2 °F 83.0 °F 55.4 °F 37% 30.04 in 10.0 mi Calm Calm - N/A   Partly Cloudy
7:40 PM 78.8 °F - 51.8 °F 39% 30.05 in 10.0 mi NNW 4.6 mph - N/A   Scattered Clouds
8:40 PM 69.8 °F - 55.4 °F 60% 29.78 in 10.0 mi Calm Calm - N/A   Scattered Clouds
8:45 PM 78 °F - 54 °F 33% 29.59 in 1 mi WNW 2.2 mph - -  
11:40 PM 78 °F - 57 °F 38% 29.65 in 1 mi NNE 2.2 mph - -   Partly Cloudy